Wind_Speed
17 16 15 15 14 14 14 15 15 15 14 13 12 12 11 11 11 11 12 13 14 15 16 17 18 19 20 21 22 22 21 21 21 21 22 22 22 22 22 21 20 20 18
17 17 16 16 15 15 15 16 16 16 15 14 13 12 12 12 12 12 13 14 15 16 17 18 18 19 21 22 23 23 23 23 23 24 24 25 25 24 24 24 23 22 21
18 18 18 17 17 17 16 16 16 16 15 14 14 13 12 12 12 13 13 15 16 17 18 19 20 20 21 22 23 23 24 24 25 25 26 27 27 27 27 26 25 24 23
19 19 19 19 18 18 17 17 17 16 16 15 14 13 13 12 12 13 14 15 17 18 19 20 21 21 21 21 22 22 23 24 25 26 27 28 29 29 29 28 27 27 26
20 20 20 20 20 19 18 17 17 17 16 15 14 13 13 13 13 13 14 15 17 18 20 21 22 22 22 23 23 24 24 25 26 27 28 29 29 29 29 29 28 28 28
21 21 21 21 20 20 19 18 17 17 16 15 14 14 13 13 14 14 15 16 17 18 19 20 21 22 23 24 25 26 27 27 28 29 29 30 30 30 30 30 30 29 30
23 22 22 22 21 20 19 18 18 17 17 15 15 14 14 14 14 15 15 16 18 18 19 20 21 22 24 25 26 27 28 29 30 30 31 31 31 31 31 32 32 32 33
23 22 22 21 21 20 19 18 18 18 17 16 15 15 15 15 15 15 16 17 18 20 21 22 23 24 25 26 28 29 30 30 31 32 32 33 33 33 33 34 35 35 36
22 22 21 20 20 19 19 19 19 19 19 17 17 16 16 16 16 16 16 17 18 19 21 22 23 25 26 27 29 30 31 32 33 34 34 35 35 35 36 36 37 38 39
22 21 20 20 19 19 19 19 20 21 21 20 18 18 17 17 16 16 16 17 18 19 20 21 22 24 25 26 27 28 29 31 32 33 34 35 36 37 38 39 39 40 41
22 21 21 20 20 20 19 20 21 22 22 21 20 19 19 18 18 17 17 18 19 20 20 22 23 24 25 26 26 27 29 30 31 32 33 35 36 38 39 40 41 42 42
23 22 22 22 21 21 20 20 21 22 23 23 22 21 21 20 20 20 20 21 22 23 24 25 26 27 27 28 29 30 31 32 32 33 34 35 37 38 39 40 41 41 42
25 24 24 23 23 22 22 21 21 21 22 24 24 23 22 22 22 23 23 24 26 27 29 31 31 32 32 33 34 34 35 36 36 37 37 38 38 39 39 40 40 41 41
27 26 26 25 25 24 23 22 21 21 22 23 25 25 24 24 24 25 26 27 29 30 32 33 34 34 35 37 38 39 39 39 40 40 40 41 41 41 41 41 41 41 41
29 28 28 27 27 26 24 23 22 21 21 23 24 25 25 25 25 26 27 29 30 31 31 32 32 33 34 35 37 38 39 40 41 42 42 42 42 42 42 42 42 42 42
30 30 30 29 29 27 26 24 22 21 22 23 25 25 25 25 26 27 28 29 29 29 30 30 31 31 33 34 35 37 38 40 41 42 43 43 43 43 43 43 43 43 43
31 31 31 30 30 29 27 25 22 21 23 24 25 24 25 25 26 27 28 28 29 30 30 31 31 32 33 35 37 39 40 42 43 44 44 44 44 44 44 44 44 45 45
32 31 31 31 30 30 28 26 23 23 24 25 25 25 25 25 26 27 28 29 30 30 31 31 32 33 35 37 39 41 42 43 44 44 44 44 44 44 45 45 46 47 48
34 32 32 31 30 30 28 26 25 25 26 26 26 26 25 26 27 28 29 30 31 31 32 33 34 36 38 40 41 42 43 43 44 44 44 44 45 46 47 48 49 51 52
36 33 32 31 30 29 28 27 26 27 27 28 27 26 27 28 29 30 30 31 31 32 34 35 37 39 40 41 41 42 43 43 44 44 45 46 48 49 50 52 54 55 57
37 34 33 32 31 29 28 28 28 29 29 29 28 28 29 30 31 31 32 32 33 34 36 38 40 41 41 41 42 42 44 44 45 46 47 49 51 53 55 57 59 61 62
37 36 34 33 32 30 29 28 29 29 30 29 29 30 31 31 32 33 33 34 35 37 39 40 42 42 43 43 43 43 44 45 47 48 51 53 55 57 60 62 63 64 65
38 37 35 34 33 31 29 28 29 30 30 30 31 31 32 33 34 35 36 37 38 40 41 42 43 45 46 46 46 47 47 47 47 48 52 56 58 60 62 64 65 66 67
38 37 36 35 34 32 30 29 29 30 30 31 32 33 34 35 36 37 38 39 41 42 43 44 45 47 47 48 49 50 52 54 54 53 54 57 59 61 63 64 65 66 67
38 38 37 35 34 32 30 29 29 30 30 31 32 34 35 36 38 39 40 41 43 44 45 46 47 48 49 50 51 53 55 58 60 61 60 60 61 62 63 64 65 67 70
38 38 37 35 34 32 30 29 29 29 30 32 33 35 36 38 39 40 42 43 44 45 46 48 49 50 51 53 55 57 59 61 63 65 65 65 65 64 65 66 68 71 75
Wind_Direction
259 259 260 264 271 279 285 291 294 298 299 302 304 304 302 299 293 286 282 278 273 270 267 264 264 265 268 268 267 265 265 267 270 273 276 278 281 281 279 278 278 279 282
262 262 261 264 269 276 282 287 291 294 296 299 300 301 300 297 292 287 281 277 273 271 269 268 269 270 272 272 270 269 268 269 273 275 278 279 280 280 279 277 276 276 277
262 263 265 266 269 273 279 283 287 290 292 295 296 295 294 292 288 284 280 277 273 271 271 271 272 274 275 275 274 273 271 272 273 275 276 277 277 278 277 276 274 274 274
262 264 266 267 269 272 276 280 283 285 288 290 291 292 290 286 283 281 279 278 276 275 273 272 273 274 276 277 277 276 274 274 275 276 277 278 278 277 276 275 273 271 271
260 262 265 267 269 270 273 276 279 282 284 287 288 289 288 283 278 277 278 279 279 279 277 275 273 274 275 276 276 276 276 276 277 278 280 281 280 280 279 277 275 272 270
256 259 263 266 267 268 270 272 273 276 279 282 285 287 285 282 278 277 278 279 281 282 281 278 276 275 275 276 276 276 277 277 278 279 280 281 281 281 280 279 276 273 271
254 255 259 262 265 266 268 268 267 269 272 276 280 283 282 281 279 278 278 279 279 281 282 282 281 280 280 279 279 279 279 279 280 280 281 281 281 281 280 279 278 276 274
250 251 255 259 262 265 266 265 262 262 265 269 274 278 279 279 280 281 282 282 282 282 282 282 283 283 283 283 283 283 283 283 283 282 282 283 283 282 281 279 278 277 276
247 248 252 257 261 265 266 263 260 258 259 262 267 271 274 275 277 280 284 286 287 287 286 286 287 286 286 285 284 284 285 285 285 285 285 285 285 284 283 282 280 279 278
245 247 252 258 263 267 268 264 259 256 256 258 262 266 269 271 274 278 282 286 288 288 289 290 290 290 289 288 288 288 288 287 287 287 287 287 286 285 283 282 281 280 279
244 246 252 259 266 270 271 266 259 255 254 255 259 264 266 269 274 278 282 285 288 290 291 291 291 291 291 291 291 290 290 290 290 290 290 289 288 287 286 285 283 282 280
242 244 251 259 266 271 273 268 260 255 253 254 257 262 265 269 274 279 283 286 288 290 291 292 292 292 292 291 292 292 292 293 294 294 294 294 293 291 290 288 287 285 284
241 243 248 255 263 268 271 269 262 256 254 255 257 260 265 269 274 280 284 287 290 292 293 293 293 293 293 293 292 292 293 294 295 295 296 296 296 295 294 293 291 290 288
240 242 247 253 259 265 270 269 264 258 255 257 258 260 264 269 275 280 284 288 290 293 294 294 294 293 292 291 291 291 291 293 294 295 295 296 296 296 295 295 294 292 291
241 243 246 250 256 261 266 268 264 259 257 258 260 262 265 269 274 280 284 288 291 294 295 295 295 294 293 292 291 291 291 293 294 294 294 295 294 294 293 293 291 290 289
243 243 246 250 253 258 262 265 263 258 256 258 261 263 266 270 275 279 283 287 291 293 295 296 296 295 294 294 293 292 293 293 293 293 294 293 293 292 291 289 288 286 285
244 244 246 249 252 255 259 261 260 256 255 258 260 263 267 271 275 278 282 286 289 292 294 294 295 295 295 295 295 295 295 294 294 294 293 293 291 290 289 288 286 285 283
244 245 245 248 251 253 255 258 257 253 254 257 260 263 267 271 274 278 283 286 288 290 292 293 294 295 295 295 296 296 296 295 294 294 293 292 290 289 288 287 286 284 283
246 246 245 246 249 251 253 255 254 251 252 255 258 262 266 270 274 279 283 286 288 289 291 293 294 295 296 296 296 296 296 295 295 294 293 291 290 288 287 286 285 284 284
246 248 247 245 247 249 250 252 251 249 251 254 257 260 264 269 273 278 283 287 288 290 291 293 295 296 296 295 295 295 295 294 294 293 292 291 290 289 289 288 288 288 287
245 247 247 246 246 247 248 250 249 249 251 253 256 260 264 269 274 279 284 287 288 290 292 294 296 297 296 295 295 295 294 294 293 293 293 292 292 292 292 292 291 291 290
242 244 246 246 245 245 247 249 250 251 252 254 256 260 265 271 276 281 285 287 289 292 294 295 296 297 297 296 295 293 293 293 294 294 294 294 294 294 294 294 294 293 292
240 242 245 245 244 244 245 248 250 251 252 254 258 262 267 272 277 282 286 288 290 293 294 296 297 297 297 297 296 295 293 292 290 291 293 294 295 295 295 294 294 293 292
239 241 244 245 245 244 244 246 248 250 252 256 260 264 269 274 279 283 286 289 292 294 295 296 297 298 298 298 297 297 297 296 295 293 293 293 294 294 293 293 292 291 290
238 239 242 244 245 245 245 246 249 251 254 258 262 266 271 276 280 283 287 290 293 294 296 297 298 299 298 298 298 298 298 298 298 297 296 295 295 295 294 293 292 291 290
236 238 241 243 244 245 245 247 250 253 256 260 264 268 273 277 280 284 288 292 294 296 297 299 299 299 299 299 299 298 298 298 298 298 298 297 296 295 295 294 293 292 291
Height
5845 5846 5846 5847 5847 5848 5848 5848 5848 5848 5848 5848 5847 5847 5847 5847 5848 5848 5848 5849 5849 5849 5850 5850 5850 5850 5849 5849 5850 5850 5851 5851 5851 5851 5850 5850 5850 5849 5849 5848 5848 5847 5846
5843 5843 5843 5844 5844 5845 5845 5845 5845 5845 5845 5845 5844 5844 5844 5844 5845 5845 5845 5846 5846 5847 5847 5847 5847 5847 5847 5847 5847 5847 5848 5848 5848 5847 5847 5847 5846 5846 5846 5845 5845 5844 5844
5839 5840 5840 5841 5841 5842 5842 5842 5842 5842 5842 5842 5842 5841 5841 5841 5842 5842 5843 5843 5843 5844 5844 5844 5844 5844 5844 5844 5844 5844 5845 5844 5844 5844 5843 5843 5842 5842 5841 5841 5841 5840 5840
5836 5836 5837 5837 5838 5839 5839 5839 5839 5839 5839 5839 5839 5839 5839 5839 5839 5839 5840 5840 5840 5841 5841 5841 5841 5841 5841 5841 5841 5841 5841 5840 5840 5839 5839 5838 5838 5837 5837 5836 5836 5836 5836
5832 5833 5833 5834 5834 5835 5835 5836 5836 5835 5835 5835 5836 5836 5836 5836 5836 5837 5837 5837 5837 5837 5838 5838 5838 5838 5837 5837 5837 5836 5836 5836 5835 5835 5834 5834 5833 5832 5832 5831 5831 5831 5830
5828 5829 5830 5830 5831 5831 5832 5832 5832 5832 5832 5832 5833 5833 5833 5833 5833 5833 5833 5834 5834 5834 5834 5834 5833 5833 5833 5832 5832 5832 5831 5831 5830 5830 5829 5829 5828 5827 5826 5826 5826 5825 5825
5824 5825 5826 5826 5827 5827 5828 5828 5828 5829 5829 5829 5830 5830 5830 5830 5830 5830 5830 5830 5830 5830 5830 5830 5829 5829 5828 5828 5827 5827 5826 5826 5825 5824 5824 5823 5823 5822 5821 5821 5820 5819 5819
5820 5821 5822 5822 5823 5823 5824 5824 5825 5825 5826 5826 5826 5827 5827 5827 5827 5827 5827 5826 5826 5826 5826 5826 5825 5825 5824 5823 5823 5822 5821 5821 5820 5819 5819 5818 5817 5816 5815 5815 5814 5813 5813
5816 5817 5818 5818 5819 5819 5820 5820 5821 5821 5822 5823 5823 5824 5824 5824 5824 5824 5823 5823 5823 5822 5822 5821 5821 5820 5820 5819 5818 5817 5816 5815 5815 5814 5813 5812 5811 5810 5809 5808 5807 5807 5806
5812 5813 5814 5814 5815 5815 5816 5816 5817 5817 5818 5819 5819 5820 5820 5821 5821 5820 5820 5820 5819 5819 5818 5817 5817 5816 5815 5814 5813 5812 5811 5810 5809 5808 5807 5806 5805 5803 5802 5801 5800 5799 5798
5808 5809 5810 5811 5811 5811 5811 5812 5812 5813 5814 5815 5816 5816 5817 5817 5817 5817 5816 5816 5816 5815 5814 5814 5813 5812 5811 5809 5808 5807 5806 5805 5803 5802 5801 5800 5798 5796 5795 5793 5792 5791 5789
5803 5805 5806 5806 5807 5807 5807 5807 5808 5809 5810 5811 5812 5812 5812 5813 5813 5813 5812 5812 5812 5811 5810 5809 5808 5807 5806 5804 5803 5802 5800 5799 5797 5796 5794 5792 5791 5789 5787 5785 5784 5782 5781
5798 5800 5801 5801 5802 5802 5803 5803 5804 5805 5805 5806 5807 5808 5808 5808 5809 5808 5808 5808 5807 5806 5805 5804 5803 5801 5800 5798 5797 5796 5794 5793 5791 5789 5787 5785 5783 5781 5779 5777 5775 5773 5771
5792 5794 5795 5796 5797 5797 5798 5799 5799 5800 5801 5802 5802 5803 5803 5804 5804 5804 5803 5803 5802 5801 5799 5798 5796 5795 5793 5792 5790 5789 5787 5785 5783 5781 5779 5777 5775 5772 5770 5768 5766 5763 5762
5787 5788 5789 5790 5791 5792 5793 5794 5795 5795 5796 5797 5797 5798 5798 5799 5799 5799 5798 5797 5796 5795 5793 5791 5790 5788 5786 5784 5783 5781 5779 5777 5775 5773 5770 5768 5766 5763 5761 5759 5757 5754 5752
5781 5782 5783 5784 5786 5787 5788 5788 5789 5791 5791 5791 5792 5793 5793 5794 5794 5793 5793 5792 5790 5788 5787 5785 5783 5781 5779 5777 5775 5773 5771 5769 5767 5764 5762 5760 5757 5755 5752 5750 5748 5746 5743
5775 5776 5777 5778 5779 5781 5782 5783 5784 5785 5786 5786 5786 5787 5788 5788 5788 5788 5787 5786 5784 5782 5781 5779 5777 5775 5773 5770 5768 5765 5763 5761 5758 5755 5753 5750 5748 5745 5742 5740 5738 5736 5733
5768 5770 5771 5772 5773 5775 5776 5777 5778 5779 5780 5780 5781 5782 5782 5782 5782 5782 5781 5780 5778 5776 5775 5773 5771 5769 5766 5764 5760 5757 5755 5752 5749 5746 5743 5740 5737 5735 5732 5729 5727 5724 5722
5761 5763 5764 5766 5767 5768 5770 5771 5772 5773 5774 5775 5775 5776 5777 5777 5776 5776 5775 5773 5772 5770 5768 5766 5764 5762 5759 5756 5753 5749 5746 5742 5739 5736 5734 5730 5727 5724 5721 5718 5715 5712 5709
5754 5756 5757 5759 5760 5762 5763 5765 5766 5766 5768 5769 5770 5770 5771 5771 5770 5769 5768 5767 5765 5763 5761 5759 5756 5754 5751 5748 5744 5740 5737 5733 5730 5727 5723 5720 5716 5713 5709 5705 5702 5698 5694
5746 5748 5750 5752 5754 5755 5757 5758 5759 5760 5761 5762 5764 5764 5765 5764 5764 5763 5761 5760 5758 5756 5754 5751 5748 5745 5742 5739 5736 5732 5728 5724 5720 5716 5712 5708 5704 5700 5695 5691 5687 5682 5678
5738 5740 5743 5745 5747 5749 5751 5752 5753 5754 5755 5756 5757 5758 5758 5758 5757 5755 5754 5752 5750 5748 5745 5742 5739 5735 5732 5729 5726 5723 5719 5716 5710 5705 5700 5696 5691 5686 5681 5675 5670 5665 5660
5730 5733 5735 5738 5740 5742 5744 5745 5747 5748 5749 5750 5751 5751 5751 5750 5749 5748 5746 5744 5742 5739 5736 5733 5729 5725 5721 5717 5714 5710 5707 5704 5702 5699 5691 5684 5678 5673 5667 5661 5654 5648 5643
5722 5725 5728 5731 5733 5735 5737 5739 5740 5741 5742 5743 5744 5744 5743 5743 5741 5740 5738 5736 5733 5730 5726 5723 5719 5715 5710 5706 5701 5696 5692 5687 5684 5684 5682 5674 5667 5660 5653 5646 5639 5632 5626
5714 5717 5721 5724 5726 5728 5730 5732 5733 5734 5735 5736 5737 5736 5736 5735 5734 5732 5729 5727 5724 5720 5716 5712 5707 5703 5698 5693 5688 5683 5678 5672 5666 5662 5662 5659 5653 5645 5637 5630 5622 5615 5607
5706 5710 5713 5717 5719 5721 5723 5725 5726 5727 5728 5729 5729 5729 5728 5727 5725 5723 5720 5717 5714 5710 5705 5700 5695 5691 5686 5680 5675 5669 5664 5658 5652 5646 5642 5639 5634 5629 5621 5613 5605 5595 5586